Home   Weather   Al Jizah   Past weeks

Flag for Egypt Past Weather in Al Jizah, Egypt — Yesterday and Last 2 Weeks

Now
59 °F

Clear.


Feels Like: 58 °F
Forecast: 53 / 73 °F
Wind: 6 mph from Northeast

Location: Cairo Airport

Current Time: Dec 5, 2016 at 12:20:08 am

Latest Report: Dec 5, 2016 at 12:00 am


Visibility: 10 mi

Pressure: 30.15 "Hg

Humidity: 82%

Dew Point: 54 °F

Location of Al JizahLocation

Past Weather in Al Jizah — Graph

°F

Al Jizah Temperature Yesterday

Maximum temperature yesterday: 72 °F (at 2:30 pm)
Minimum temperature yesterday: 54 °F (at 5:00 am)
Average temperature yesterday: 63 °F

High & Low Weather Summary for the Past Weeks

 TemperatureHumidityPressure
High81 °F (Nov 21, 2:30 pm)100% (Nov 25, 4:00 am)30.30 "Hg (Nov 25, 4:00 am)
Low52 °F (Nov 27, 6:00 am)12% (Nov 25, 11:30 am)29.86 "Hg (Nov 30, 4:00 pm)
Average66 °F53%30.02 "Hg
* Reported Nov 19 11:00 pm — Dec 4 11:00 pm, Al Jizah, Weather by CustomWeather, © 2016

Note: Actual official high and low records may vary slightly from our data, if they occured in-between our weather recording intervals... More about our weather records

Advertising

Al Jizah Weather History for the Previous 24 Hours

Scroll right to see more
 ConditionsComfort  
Time TempWeatherWind HumidityBarometerVisibility
11:00 pm
Sun, Dec 4
61 °FClear.5 mph77%30.18 "Hg10 mi
10:30 pm63 °FClear.8 mph77%30.18 "Hg10 mi
10:00 pm63 °FClear.8 mph73%30.18 "Hg10 mi
9:30 pm63 °FClear.8 mph73%30.18 "Hg10 mi
9:00 pm64 °FClear.8 mph68%30.18 "Hg10 mi
8:30 pm64 °FClear.8 mph68%30.18 "Hg10 mi
8:00 pm64 °FClear.8 mph68%30.18 "Hg10 mi
7:30 pm66 °FClear.9 mph64%30.18 "Hg10 mi
7:00 pm66 °FClear.9 mph64%30.18 "Hg10 mi
6:30 pm66 °FClear.6 mph64%30.18 "Hg10 mi
6:00 pm68 °FClear.8 mph60%30.15 "Hg10 mi
5:30 pm68 °FClear.9 mph56%30.15 "Hg10 mi
5:00 pm70 °FClear.12 mph57%30.15 "Hg10 mi
4:30 pm70 °FSunny.13 mph53%30.15 "Hg10 mi
4:00 pm70 °FSunny.13 mph50%30.15 "Hg10 mi
3:30 pm70 °FSunny.14 mph53%30.15 "Hg10 mi
3:00 pm72 °FSunny.13 mph44%30.15 "Hg10 mi
2:30 pm72 °FSunny.12 mph44%30.15 "Hg10 mi
2:00 pm70 °FSunny.10 mph46%30.15 "Hg10 mi
1:30 pm70 °FSunny.10 mph46%30.18 "Hg10 mi
1:00 pm70 °FSunny.10 mph43%30.18 "Hg10 mi
12:30 pm70 °FPartly sunny.14 mph46%30.18 "HgN/A
12:00 pm68 °FPartly sunny.13 mph46%30.18 "HgN/A
11:30 am68 °FPartly sunny.13 mph46%30.21 "HgN/A
11:00 am68 °FSunny.13 mph46%30.21 "Hg10 mi
10:30 am64 °FSunny.10 mph49%30.24 "Hg10 mi
10:00 am64 °FSunny.10 mph49%30.24 "Hg10 mi
9:30 am61 °FSunny.5 mph55%30.24 "Hg10 mi
9:00 am61 °FSunny.5 mph55%30.24 "Hg10 mi
8:00 am57 °FSunny.6 mph63%30.24 "Hg10 mi
7:30 am54 °FSunny.5 mph72%30.21 "Hg10 mi
7:00 am54 °FSunny.5 mph72%30.21 "Hg10 mi
6:30 am54 °FClear.5 mph72%30.21 "Hg10 mi
6:00 am54 °FClear.5 mph72%30.21 "Hg10 mi
5:30 am54 °FClear.5 mph72%30.21 "Hg10 mi
5:00 am54 °FClear.9 mph72%30.21 "Hg10 mi
4:30 am55 °FClear.9 mph72%30.21 "Hg10 mi
4:00 am55 °FClear.9 mph72%30.21 "Hg10 mi
3:30 am55 °FClear.10 mph72%30.21 "Hg10 mi
3:00 am55 °FClear.6 mph72%30.21 "Hg10 mi
2:30 am57 °FClear.6 mph67%30.21 "Hg10 mi
2:00 am57 °FClear.7 mph67%30.21 "Hg10 mi
1:00 am59 °FClear.9 mph63%30.21 "Hg10 mi
12:30 am59 °FClear.10 mph63%30.21 "Hg10 mi
12:00 am61 °FClear.10 mph59%30.21 "Hg10 mi
Weather by CustomWeather, © 2016

See weather overviewHow to use our weather pages